Theta_e
359 363 366 364 364 365 362 367 367 365 367 365 362 359 357 357 356 353 348 342 335 336 336 333 332 336 327 326 329 329 328 329 323 322 325 330 332 332 333 333 331 331 325
359 368 362 365 369 362 363 362 365 366 366 365 362 359 357 356 355 352 343 337 334 332 331 331 329 326 332 332 325 334 331 334 324 327 329 327 330 332 334 334 330 327 329
361 357 359 362 362 363 364 365 366 368 366 363 361 358 357 356 352 347 340 335 332 329 331 331 330 331 331 329 331 327 325 325 327 323 323 326 327 329 330 334 332 335 326
361 358 364 366 368 367 369 369 366 368 366 364 361 359 356 353 348 338 332 331 328 329 330 330 330 330 331 332 330 332 330 328 328 324 324 323 324 329 328 323 323 326 325
370 369 368 371 373 373 372 370 372 366 363 364 360 355 351 349 342 333 330 326 327 327 334 330 332 330 327 327 328 334 334 329 324 322 322 322 323 323 325 323 323 323 328
370 370 374 373 372 370 371 368 370 364 362 359 355 352 350 346 328 329 326 323 325 329 331 331 327 325 324 324 326 324 327 333 331 327 323 325 328 328 326 324 322 320 318
364 364 366 366 365 367 367 367 364 360 355 352 354 351 351 342 325 327 328 325 329 331 332 328 325 325 329 327 319 320 319 318 320 332 329 328 329 330 330 328 328 324 322
359 361 360 360 367 367 367 366 361 358 355 353 352 350 348 337 324 325 328 330 330 332 330 329 329 329 331 330 331 329 330 331 331 328 331 331 328 326 326 326 328 331 326
352 343 348 356 359 359 362 364 359 357 355 355 353 351 349 332 322 323 326 329 329 330 329 331 331 331 323 321 332 328 328 329 323 324 320 322 322 321 321 321 318 316 313
362 364 354 362 365 363 364 364 361 358 353 351 347 348 341 336 320 320 323 325 327 325 330 332 326 330 323 321 329 329 327 329 328 330 329 325 324 326 324 327 321 315 312
366 366 368 364 362 361 364 359 354 354 353 352 348 347 344 339 326 318 318 331 324 324 326 327 325 322 321 321 315 328 328 328 327 329 329 325 326 324 325 326 326 319 314
372 369 371 371 362 361 360 352 347 347 348 347 346 345 343 337 324 317 316 316 324 327 328 327 329 317 316 320 316 321 320 319 325 325 324 323 322 322 322 323 326 324 322
366 368 367 366 357 349 352 348 343 343 338 341 342 342 339 338 330 317 315 317 319 325 327 323 316 312 317 315 315 317 316 324 324 324 323 323 323 323 328 330 330 334 332
362 363 361 356 347 346 347 343 339 337 338 339 339 339 337 337 333 326 320 319 319 322 320 324 323 324 321 318 321 319 323 325 325 325 323 324 324 323 321 321 319 317 314
359 356 345 343 338 339 340 341 340 338 334 337 337 336 337 334 332 322 320 321 324 319 327 327 321 319 320 321 322 324 327 327 326 325 324 323 323 322 320 321 318 316 312
355 346 342 339 336 337 336 328 313 318 315 313 314 327 336 321 311 309 307 308 308 309 322 321 320 319 319 320 321 324 327 328 327 325 325 324 322 320 319 319 318 316 312
349 346 342 336 337 338 333 330 327 319 311 313 309 312 309 310 305 304 303 303 305 309 321 321 321 321 321 321 321 322 323 326 337 327 325 324 322 320 318 317 317 316 312
347 324 343 339 338 333 331 330 330 330 330 329 312 312 302 301 302 301 301 305 311 315 318 321 322 323 322 322 321 322 323 324 325 325 325 328 323 320 318 317 316 316 312
345 346 344 344 338 333 333 331 331 330 328 322 315 306 301 298 298 299 302 317 318 317 317 319 323 323 323 323 324 324 327 324 324 324 324 323 325 321 320 318 316 309 308
347 331 336 336 332 329 328 326 323 322 321 317 320 314 309 308 311 315 314 321 319 317 317 320 322 323 324 325 326 325 324 323 325 325 326 327 325 323 319 318 316 314 311
344 339 331 332 328 327 325 324 324 323 321 319 320 320 309 318 313 314 318 319 319 320 321 322 324 323 326 326 325 324 324 324 324 324 322 322 328 321 320 318 317 315 310
342 336 336 333 331 329 328 327 327 326 325 324 323 313 303 315 317 317 318 318 318 323 325 327 325 325 325 324 324 324 324 323 324 326 324 323 325 321 320 317 316 313 309
342 337 335 333 334 328 330 330 329 328 328 327 322 314 313 318 319 320 318 318 321 323 327 326 326 325 325 325 326 327 326 324 325 326 325 323 322 321 319 317 315 311 307
343 339 337 333 330 334 332 330 329 322 331 332 327 321 320 319 323 323 325 326 327 326 326 326 325 325 326 326 327 327 328 327 328 326 325 323 321 317 318 317 314 309 308
342 340 335 332 330 332 333 333 331 333 335 335 331 327 323 321 326 327 327 326 324 324 324 325 325 326 327 328 329 328 312 301 320 304 324 323 321 321 318 316 313 309 308
340 336 333 332 332 332 332 335 334 336 335 331 328 325 323 322 326 326 326 325 324 324 325 325 326 327 327 328 329 312 290 295 313 296 320 322 320 319 318 316 313 308 308
Wind_Speed
17 16 14 13 13 12 11 10 9 8 8 10 11 9 7 7 6 4 5 4 3 4 6 5 5 4 4 4 3 3 3 4 5 5 6 4 4 5 6 6 4 2 8
16 13 15 13 11 14 12 12 11 10 11 11 11 11 10 8 8 6 6 7 5 5 7 6 5 5 5 2 6 6 5 6 6 5 4 5 3 2 1 3 6 4 1
14 16 15 14 13 12 12 11 11 10 11 11 11 11 11 8 8 6 5 5 4 4 5 6 5 5 6 6 6 3 4 3 1 4 4 3 4 4 3 4 3 4 4
14 16 14 15 14 13 12 12 12 11 10 9 10 10 8 10 9 8 8 6 4 3 5 5 5 5 5 5 5 4 3 4 2 2 3 4 4 3 5 5 6 5 5
12 12 13 13 11 11 11 11 11 10 10 11 10 9 10 10 8 11 9 6 4 4 3 5 7 8 10 8 0 5 2 1 3 3 3 5 6 6 7 7 7 7 5
9 10 10 12 13 13 13 13 12 13 9 9 10 11 11 9 17 13 11 7 6 6 6 8 7 7 7 7 10 8 8 6 5 7 6 5 3 6 7 8 7 8 8
4 5 7 6 9 10 12 13 14 13 13 11 11 10 10 10 16 15 15 12 11 8 7 7 9 8 5 5 2 1 2 1 3 4 3 5 5 6 7 8 7 7 7
9 8 3 7 9 11 13 13 14 12 13 12 13 13 11 11 18 15 13 10 9 9 9 9 7 8 5 1 4 3 3 8 4 3 3 5 6 6 6 8 10 9 10
7 8 21 13 10 13 14 14 13 12 13 12 14 14 14 14 17 14 11 11 10 9 9 7 8 8 8 3 6 1 2 2 7 5 3 4 5 6 6 6 7 8 8
10 14 12 10 12 14 14 15 14 14 14 12 14 12 14 17 15 17 14 9 10 8 8 7 4 3 11 5 4 2 4 4 5 5 7 9 11 10 11 4 6 8 8
10 12 13 14 13 11 13 13 15 14 14 14 16 14 14 19 18 16 17 8 9 9 9 9 8 11 8 7 3 5 4 6 3 7 10 5 3 2 3 1 4 5 7
4 6 11 12 11 12 16 14 11 10 9 13 13 11 9 13 17 15 16 12 3 9 8 8 7 16 11 9 6 0 3 4 7 10 5 4 5 6 6 5 4 6 6
8 6 9 13 13 13 16 16 12 11 9 11 12 11 10 10 12 22 15 7 7 7 7 6 19 13 9 7 9 7 5 7 8 7 6 5 5 5 4 5 4 5 8
10 5 6 8 10 12 11 12 12 13 14 14 13 13 12 11 11 13 13 10 8 7 7 9 10 8 7 1 3 7 7 9 6 6 6 6 6 6 6 6 7 8 9
9 7 6 6 9 10 10 9 10 10 8 10 11 9 12 13 11 11 19 14 10 8 8 6 6 8 8 8 8 8 8 7 7 7 6 6 6 6 7 7 7 8 9
5 4 5 6 8 7 8 5 11 4 4 4 3 6 9 2 14 21 18 18 16 13 8 9 9 9 10 8 8 7 7 7 6 6 6 6 6 7 7 8 8 9 9
6 5 4 6 7 7 6 7 9 3 4 5 2 3 1 9 19 20 17 14 14 13 10 9 8 9 8 7 7 6 6 3 3 4 7 7 6 7 7 8 9 9 9
5 3 5 5 5 6 8 9 8 10 10 9 3 3 12 14 20 20 18 13 7 9 10 10 9 8 8 7 7 7 6 6 5 6 6 3 6 7 8 8 9 9 10
7 4 7 4 4 7 9 9 7 9 8 8 7 7 8 13 11 18 18 10 12 12 9 10 8 8 8 7 7 6 4 6 6 7 8 7 4 4 6 9 9 7 6
5 5 4 3 2 2 0 3 6 7 8 8 8 9 10 9 10 11 10 11 11 10 11 10 8 8 7 6 5 4 6 7 7 7 5 2 4 4 5 9 9 9 10
4 4 6 4 2 2 2 4 8 9 9 8 8 9 13 13 10 11 13 11 10 11 11 10 9 9 7 5 6 7 8 8 6 3 4 4 3 2 6 8 9 9 10
6 7 5 6 4 4 5 5 5 9 9 9 10 11 17 10 12 13 14 13 12 10 9 8 9 9 8 8 8 7 7 5 3 1 4 5 2 3 4 8 8 9 9
8 9 8 5 5 7 7 7 7 9 10 12 13 14 15 12 10 14 14 13 12 12 10 9 9 8 8 6 6 6 5 6 3 4 5 7 6 4 6 8 8 9 8
8 8 7 6 5 5 5 7 8 10 10 13 15 14 15 14 14 15 14 13 13 11 11 10 10 11 8 7 7 6 6 6 3 3 6 5 7 5 7 7 8 9 8
8 7 7 7 6 7 9 8 11 12 13 13 14 14 15 15 13 13 11 11 11 12 13 11 10 12 12 11 10 6 9 9 2 3 5 5 6 6 6 7 8 8 10
7 8 8 8 7 7 10 11 14 13 13 10 11 12 14 14 12 11 12 12 11 11 11 10 11 14 12 11 13 7 12 11 6 5 5 5 5 6 6 7 10 8 9
Wind_Direction
200 188 196 199 199 204 204 197 217 188 188 173 180 175 167 164 159 189 59 119 155 110 107 91 74 359 44 65 49 41 35 354 109 96 93 73 84 24 16 350 349 129 105
197 185 193 195 196 195 206 197 199 187 191 181 180 179 177 175 164 167 188 130 160 143 120 126 126 107 131 102 86 27 33 17 87 72 3 135 44 87 18 17 326 0 319
201 195 192 193 195 197 192 197 191 184 189 179 179 185 179 173 147 149 124 135 143 136 144 130 122 102 53 55 23 63 105 105 157 103 116 57 100 12 357 32 295 327 349
197 201 190 188 188 192 183 178 187 169 178 171 185 180 164 156 157 150 144 122 121 168 148 118 104 95 100 92 81 89 90 124 133 134 100 112 42 77 11 7 340 1 343
206 199 192 178 181 186 184 174 177 163 171 172 170 154 167 175 159 149 137 116 113 78 85 130 86 65 53 31 157 57 315 338 101 84 65 67 36 3 26 350 331 2 335
212 207 196 178 182 181 169 178 168 170 168 155 167 166 172 187 117 138 141 126 131 179 194 93 108 110 88 51 52 33 29 28 42 356 52 54 40 2 9 347 338 352 333
201 242 256 233 196 201 180 170 167 159 157 171 171 168 164 137 142 152 165 164 173 165 147 158 194 123 158 122 142 217 222 60 33 351 16 15 334 4 342 329 354 315 310
165 84 332 244 202 198 190 178 163 167 166 161 167 171 161 142 161 173 204 166 172 175 163 181 119 153 114 309 208 177 175 177 187 279 339 14 15 353 341 307 281 267 274
196 175 199 210 194 210 197 183 168 166 166 173 165 165 165 140 162 174 196 174 169 177 180 177 160 170 128 72 286 176 241 158 138 139 156 191 195 208 253 308 358 319 331
216 199 205 216 219 193 189 180 170 170 173 164 163 170 156 145 171 175 199 190 171 181 172 177 86 176 143 138 285 274 270 75 341 183 210 230 226 220 215 248 332 329 327
211 208 200 199 202 186 193 179 175 179 163 164 163 170 171 149 167 185 202 217 174 199 187 185 186 149 151 159 199 285 344 342 281 255 255 270 202 358 189 250 355 315 317
267 264 214 202 180 187 175 161 168 150 156 161 157 161 166 145 157 184 207 206 302 208 204 189 174 159 164 173 209 106 319 295 261 266 295 324 345 340 3 336 280 255 263
278 238 191 173 172 166 176 165 161 157 168 168 176 180 167 161 166 163 205 168 240 237 238 79 132 145 155 196 225 231 249 251 256 274 295 338 339 321 272 267 280 268 258
269 226 209 173 184 181 178 180 172 174 188 181 178 181 170 173 171 161 184 190 222 177 126 129 142 157 206 221 155 201 231 253 293 321 322 304 295 326 329 328 321 320 316
262 201 180 181 184 181 191 191 186 194 192 188 189 193 177 181 184 178 162 178 179 183 195 158 177 191 211 209 218 227 220 214 226 239 267 294 305 324 326 330 329 314 308
241 182 185 182 187 192 191 161 43 343 194 77 345 205 199 173 152 154 154 142 170 166 189 198 192 207 216 218 221 229 216 205 234 256 268 297 317 323 325 324 303 320 315
253 202 191 203 189 195 175 184 185 71 73 80 16 276 320 146 138 139 138 150 159 165 192 207 207 212 222 221 239 244 252 247 90 289 275 291 322 323 316 314 310 313 316
258 145 219 204 195 184 185 186 188 187 182 184 81 173 133 141 136 136 136 132 155 201 189 207 210 216 216 218 230 238 243 257 264 260 264 306 302 294 303 304 309 323 326
271 187 216 224 221 215 195 188 191 172 165 143 132 82 80 96 120 140 154 175 180 187 201 216 220 214 212 213 216 238 267 283 296 315 309 309 305 294 301 308 315 319 322
266 66 108 159 180 171 176 139 139 138 141 141 164 153 148 131 154 166 185 203 191 187 198 217 228 224 229 211 203 228 251 257 251 240 254 255 247 278 304 314 315 324 316
178 162 132 122 176 170 159 176 162 152 147 161 175 170 168 159 161 177 193 197 205 203 199 210 208 214 215 196 224 233 242 248 248 275 201 230 239 294 313 308 308 320 321
171 161 164 157 168 185 189 177 168 154 157 174 169 152 167 172 175 182 192 194 206 218 206 212 216 199 206 210 218 236 252 272 275 202 233 268 275 271 281 295 324 318 315
169 179 165 177 184 175 174 182 171 173 181 177 161 158 182 195 181 191 187 195 195 209 219 202 203 218 204 215 238 253 268 277 287 271 308 318 296 280 315 319 306 316 317
202 201 176 149 171 201 186 182 192 192 197 203 162 165 179 192 195 185 185 188 199 195 203 204 199 206 215 227 261 237 221 247 238 308 319 294 295 282 311 324 312 319 306
204 187 172 159 178 196 201 187 200 205 217 193 157 161 178 199 195 183 187 183 187 194 198 197 200 206 218 229 262 296 124 115 336 41 293 270 269 296 289 289 308 315 303
189 179 175 169 177 212 221 214 200 194 200 169 162 163 176 188 197 182 183 189 191 198 200 197 213 217 230 227 209 179 148 143 164 205 258 253 258 269 288 310 316 311 301